Weather History for Washington, NC

Change the Weather History Date:

Sunday, December 9, 2012

  Actual Average (KEWN) Record (KEWN)
Temperature  
Mean Temperature 62 °F 48 °F  
Max Temperature 73 °F 59 °F 80 °F (1951)
Min Temperature 52 °F 37 °F 17 °F (2006)
Degree Days  
Heating Degree Days 2 17  
Month to date heating degree days 142  
Since 1 July heating degree days 569  
Cooling Degree Days 0 0  
Month to date cooling degree days 0  
Year to date cooling degree days 1900  
Growing Degree Days 12 (Base 50)    
Moisture  
Dew Point 53 °F    
Average Humidity 75    
Maximum Humidity 82    
Minimum Humidity 52    
Precipitation  
Precipitation 0.00 in 0.11 in 1.67 in (1989)
Month to date precipitation 1.00  
Year to date precipitation 50.35  
Snow  
Snow 0.00 in - - ()
Month to date snowfall  
Since 1 July snowfall  
Snow Depth -    
Sea Level Pressure  
Sea Level Pressure 30.10 in    
Wind  
Wind Speed 2 mph (SSE)    
Max Wind Speed 10 mph    
Max Gust Speed -    
Visibility 7 miles    
Events      
T = Trace of Precipitation, MM = Missing Value Source: NWS Daily Summary

Daily Weather History Graph

Daily Weather History Graph

Search for Another Location

Airport:

Trip Planner

Search our weather history database for the weather conditions in past years. The results will help you decide how hot, cold, wet, or windy it might be!

Date:

Astronomy

Dec. 09, 2012 Rise Set
Actual Time 7:06 AM EST 4:55 PM EST
Civil Twilight 6:38 AM EST 5:23 PM EST
Nautical Twilight 6:06 AM EST 5:55 PM EST
Astronomical Twilight 5:35 AM EST 6:26 PM EST
Moon 2:43 AM EST (12/9) 1:55 PM EST (12/9)
Length of Visible Light 10h 45m
Length of Day
9h 48m
Waning Crescent, 19% of the Moon is Illuminated
Dec 9
Waning Crescent
Dec 13
New
Dec 20
First Quarter
Dec 28
Full
Jan 4
Last Quarter

Hourly Weather History & Observations

Time (EST) Temp. Dew Point Humidity Pressure Visibility Wind Dir Wind Speed Gust Speed Precip Events Conditions
12:15 AM 53.1 °F 47.3 °F 81% 30.08 in 5.0 mi Calm Calm - N/A   Haze
12:35 AM 52.9 °F 47.3 °F 81% 30.08 in 4.0 mi Calm Calm - N/A   Haze
12:55 AM 52.7 °F 47.3 °F 82% 30.08 in 1.0 mi Calm Calm - N/A   Haze
1:15 AM 52.7 °F 47.3 °F 82% 30.08 in 1.8 mi SSW 3.5 mph - N/A   Haze
1:35 AM 53.4 °F 47.5 °F 80% 30.09 in 4.0 mi SSW 3.5 mph - N/A   Haze
2:15 AM 52.7 °F 47.3 °F 82% 30.10 in 1.8 mi Calm Calm - N/A   Haze
2:35 AM 52.7 °F 47.3 °F 82% 30.10 in 0.5 mi Calm Calm - N/A   Haze
2:55 AM 52.7 °F 47.3 °F 82% 30.09 in 0.2 mi Calm Calm - N/A   Haze
3:15 AM 52.7 °F 47.3 °F 82% 30.09 in 1.2 mi Calm Calm - N/A   Haze
3:35 AM 52.7 °F 47.3 °F 82% 30.09 in 2.0 mi Calm Calm - N/A   Haze
3:55 AM 52.7 °F 47.3 °F 82% 30.10 in 1.5 mi SSW 3.5 mph - N/A   Haze
4:15 AM 52.7 °F 47.3 °F 82% 30.10 in 3.0 mi Calm Calm - N/A   Haze
4:35 AM 52.9 °F 47.3 °F 81% - 4.0 mi Calm Calm - N/A   Haze
4:55 AM 52.9 °F 47.3 °F 81% 30.11 in 4.0 mi South 3.5 mph - N/A   Haze
5:15 AM 52.7 °F 47.3 °F 82% 30.11 in 5.0 mi South 3.5 mph - N/A   Haze
5:35 AM 52.7 °F 47.3 °F 82% 30.12 in 5.0 mi Calm Calm - N/A   Haze
5:55 AM 52.7 °F 47.3 °F 82% 30.12 in 3.0 mi South 3.5 mph - N/A   Haze
6:15 AM 52.7 °F 47.3 °F 82% 30.12 in 5.0 mi Calm Calm - N/A   Haze
6:35 AM 52.7 °F 47.3 °F 82% 30.13 in 5.0 mi Calm Calm - N/A   Haze
6:55 AM 52.7 °F 47.3 °F 82% 30.13 in 4.0 mi Calm Calm - N/A   Haze
7:15 AM 52.7 °F 47.3 °F 82% 30.14 in 3.0 mi Calm Calm - N/A   Haze
7:35 AM 52.7 °F 47.3 °F 82% 30.14 in 2.5 mi Calm Calm - N/A   Haze
7:55 AM 52.9 °F 47.3 °F 81% 30.15 in 3.0 mi Calm Calm - N/A   Haze
8:15 AM 54.0 °F 48.2 °F 81% 30.16 in 5.0 mi Calm Calm - N/A   Haze
8:35 AM 55.0 °F 49.3 °F 81% 30.16 in 5.0 mi Calm Calm - N/A   Haze
8:55 AM 58.1 °F 52.0 °F 80% 30.16 in 5.0 mi Calm Calm - N/A   Haze
9:15 AM 58.1 °F 52.0 °F 80% 30.17 in 7.0 mi Calm Calm - N/A   Clear
9:35 AM 58.1 °F 52.0 °F 80% 30.17 in 7.0 mi Calm Calm - N/A   Clear
9:55 AM 58.8 °F 52.9 °F 81% 30.17 in 7.0 mi Calm Calm - N/A   Clear
10:15 AM 61.0 °F 54.7 °F 80% 30.17 in 10.0 mi Calm Calm - N/A   Clear
10:35 AM 63.0 °F 56.1 °F 78% 30.16 in 10.0 mi South 3.5 mph - N/A   Clear
10:55 AM 64.0 °F 56.5 °F 76% 30.16 in 10.0 mi Calm Calm - N/A   Clear
11:15 AM 64.8 °F 56.5 °F 74% 30.15 in 10.0 mi Calm Calm - N/A   Clear
11:35 AM 66.7 °F 57.2 °F 71% 30.14 in 10.0 mi Calm Calm - N/A   Scattered Clouds
11:55 AM 68.0 °F 57.4 °F 69% 30.13 in 10.0 mi SE 4.6 mph - N/A   Scattered Clouds
12:15 PM 70.3 °F 58.1 °F 65% 30.13 in 10.0 mi Calm Calm - N/A   Scattered Clouds
12:35 PM 72.9 °F 58.8 °F 61% 30.11 in 10.0 mi Calm Calm - N/A   Scattered Clouds
12:55 PM 73.0 °F 59.7 °F 63% 30.11 in 10.0 mi SSE 4.6 mph - N/A   Scattered Clouds
1:15 PM 73.0 °F 58.1 °F 59% 30.10 in 10.0 mi South 5.8 mph - N/A   Scattered Clouds
1:35 PM 73.0 °F 56.7 °F 56% 30.09 in 10.0 mi SSE 3.5 mph - N/A   Scattered Clouds
1:55 PM 73.0 °F 55.2 °F 53% 30.09 in 10.0 mi SSE 4.6 mph - N/A   Scattered Clouds
2:15 PM 73.2 °F 54.5 °F 52% 30.08 in 10.0 mi SSE 6.9 mph - N/A   Clear
2:35 PM 73.0 °F 55.2 °F 53% 30.08 in 10.0 mi SSE 9.2 mph - N/A   Clear
2:55 PM 73.0 °F 55.4 °F 54% 30.09 in 10.0 mi SSE 10.4 mph - N/A   Scattered Clouds
3:15 PM 73.0 °F 57.4 °F 58% 30.09 in 10.0 mi SSE 6.9 mph - N/A   Scattered Clouds
3:35 PM 73.0 °F 58.1 °F 59% 30.09 in 10.0 mi SSE 6.9 mph - N/A   Scattered Clouds
3:55 PM 73.0 °F 59.0 °F 61% 30.09 in 10.0 mi SSE 6.9 mph - N/A   Scattered Clouds
4:15 PM 73.0 °F 59.4 °F 62% 30.09 in 10.0 mi SSE 6.9 mph - N/A   Scattered Clouds
4:35 PM 72.7 °F 59.5 °F 63% 30.08 in 10.0 mi SSE 6.9 mph - N/A   Clear
4:55 PM 70.7 °F 57.6 °F 63% 30.09 in 10.0 mi SSE 8.1 mph - N/A   Clear
5:15 PM 68.0 °F 56.7 °F 67% 30.09 in 10.0 mi SSE 6.9 mph - N/A   Clear
5:35 PM 68.0 °F 57.7 °F 70% 30.09 in 10.0 mi SSE 4.6 mph - N/A   Scattered Clouds
5:55 PM 66.7 °F 58.3 °F 74% 30.09 in 10.0 mi SSE 5.8 mph - N/A   Scattered Clouds
6:15 PM 64.8 °F 56.8 °F 75% 30.09 in 10.0 mi Calm Calm - N/A   Clear
6:35 PM 64.4 °F 57.2 °F 77% 30.10 in 10.0 mi SSE 3.5 mph - N/A   Clear
6:55 PM 63.0 °F 56.3 °F 79% 30.09 in 10.0 mi SE 5.8 mph - N/A   Clear
7:15 PM 63.3 °F 56.5 °F 78% 30.09 in 10.0 mi SE 4.6 mph - N/A   Clear
7:35 PM 63.0 °F 55.8 °F 77% 30.08 in 10.0 mi SE 4.6 mph - N/A   Clear
7:55 PM 63.0 °F 55.8 °F 77% 30.08 in 10.0 mi SE 5.8 mph - N/A   Clear
8:15 PM 63.0 °F 56.1 °F 78% 30.08 in 10.0 mi SSE 5.8 mph - N/A   Clear
8:35 PM 63.0 °F 56.3 °F 79% 30.08 in 10.0 mi SSE 4.6 mph - N/A   Clear
8:55 PM 63.0 °F 56.5 °F 79% 30.08 in 10.0 mi SSE 3.5 mph - N/A   Clear
9:15 PM 63.0 °F 56.8 °F 80% 30.08 in 10.0 mi SE 4.6 mph - N/A   Clear
9:35 PM 61.9 °F 55.8 °F 80% 30.07 in 10.0 mi SE 5.8 mph - N/A   Clear
9:55 PM 63.0 °F 56.8 °F 80% 30.06 in 10.0 mi SE 5.8 mph - N/A   Clear
10:15 PM 63.0 °F 56.8 °F 80% 30.06 in 10.0 mi SSE 5.8 mph - N/A   Clear
10:35 PM 63.0 °F 56.8 °F 80% 30.06 in 10.0 mi SE 4.6 mph - N/A   Clear
10:55 PM 63.0 °F 56.8 °F 80% 30.06 in 10.0 mi SSE 3.5 mph - N/A   Clear
11:15 PM 63.0 °F 56.8 °F 80% 30.05 in 10.0 mi SSE 4.6 mph - N/A   Clear
11:35 PM 61.2 °F 55.2 °F 81% 30.04 in 10.0 mi SSE 4.6 mph - N/A   Clear
11:55 PM 63.0 °F 56.8 °F 80% 30.03 in 10.0 mi SE 4.6 mph - N/A   Scattered Clouds